Volver al catálogo

STARLINK-1552

ActivoComunicacionesVLEO
NORAD 46076·PAYLOAD·🇺🇸 United States

Lanzado Aug 7, 2020 desde Cape Canaveral Space Force Station

Loading…

Próximos Pases (próximas 24 horas)

TLE

ActualizadoSource: CelesTrak SupGP

Época: Sep 14, 2026, 20:36 UTC

1 46076C 20055BB  26257.85881944 -.00005888  00000+0 -18932-3 0  2577
2 46076  53.1588 300.9364 0001266  78.6436 346.8673 15.31706420    16

Sigue STARLINK-1552 en tiempo real con AllMySat

Download on the App Store